TimeMDT,TemperatureF,Dew PointF,Humidity,Sea Level PressureIn,VisibilityMPH,Wind Direction,Wind SpeedMPH,Gust SpeedMPH,PrecipitationIn,Events,Conditions,WindDirDegrees,DateUTC
12:15 AM,59.0,50.0,72,30.58,10.0,SE,5.8,-,N/A,Rain-Thunderstorm,Light Thunderstorms and Rain,130,2013-09-05 06:15:00
12:35 AM,55.4,51.8,88,30.59,7.0,North,3.5,-,0.01,Rain-Thunderstorm,Light Thunderstorms and Rain,360,2013-09-05 06:35:00
12:55 AM,55.4,51.8,88,30.59,10.0,NE,3.5,-,0.02,Rain-Thunderstorm,Thunderstorms and Rain,50,2013-09-05 06:55:00
1:15 AM,55.4,51.8,88,30.59,10.0,ENE,3.5,-,N/A,Rain,Light Rain,70,2013-09-05 07:15:00
1:35 AM,55.4,51.8,88,30.59,10.0,ESE,6.9,-,N/A,,Overcast,110,2013-09-05 07:35:00
1:55 AM,55.4,51.8,88,30.59,10.0,East,6.9,-,N/A,Thunderstorm,Overcast,90,2013-09-05 07:55:00
2:15 AM,55.4,51.8,88,30.58,10.0,Calm,Calm,-,N/A,Rain-Thunderstorm,Light Thunderstorms and Rain,0,2013-09-05 08:15:00
2:35 AM,55.4,50.0,82,30.57,10.0,Calm,Calm,-,N/A,,Mostly Cloudy,0,2013-09-05 08:35:00
2:55 AM,55.4,51.8,88,30.56,10.0,SE,4.6,-,N/A,,Scattered Clouds,140,2013-09-05 08:55:00
3:15 AM,53.6,51.8,94,30.56,10.0,Calm,Calm,-,N/A,,Scattered Clouds,0,2013-09-05 09:15:00
3:35 AM,53.6,51.8,94,30.56,10.0,ESE,5.8,-,N/A,,Mostly Cloudy,110,2013-09-05 09:35:00
3:55 AM,53.6,51.8,94,30.56,10.0,Calm,Calm,-,N/A,,Mostly Cloudy,0,2013-09-05 09:55:00
4:15 AM,53.6,51.8,94,30.56,10.0,Calm,Calm,-,N/A,,Mostly Cloudy,0,2013-09-05 10:15:00
4:35 AM,53.6,50.0,88,30.56,10.0,Calm,Calm,-,N/A,,Overcast,0,2013-09-05 10:35:00
4:55 AM,55.4,50.0,82,30.56,10.0,ESE,6.9,-,N/A,,Overcast,120,2013-09-05 10:55:00
5:15 AM,53.6,50.0,88,30.56,10.0,ESE,6.9,-,N/A,,Overcast,120,2013-09-05 11:15:00
5:35 AM,53.6,50.0,88,30.56,10.0,SE,4.6,-,N/A,,Overcast,130,2013-09-05 11:35:00
5:55 AM,55.4,50.0,82,30.56,10.0,ESE,5.8,-,N/A,,Overcast,110,2013-09-05 11:55:00
6:15 AM,53.6,50.0,88,30.56,10.0,ESE,5.8,-,N/A,,Overcast,120,2013-09-05 12:15:00
6:35 AM,53.6,50.0,88,30.56,10.0,ESE,6.9,-,N/A,,Overcast,120,2013-09-05 12:35:00
6:55 AM,53.6,48.2,82,30.56,10.0,SE,8.1,-,N/A,,Overcast,130,2013-09-05 12:55:00
7:15 AM,53.6,48.2,82,30.56,10.0,ESE,5.8,-,N/A,,Overcast,110,2013-09-05 13:15:00
7:35 AM,53.6,48.2,82,30.57,10.0,SSE,3.5,-,N/A,,Overcast,150,2013-09-05 13:35:00
7:55 AM,55.4,48.2,77,30.57,10.0,SE,4.6,-,N/A,,Overcast,130,2013-09-05 13:55:00
8:15 AM,57.2,48.2,72,30.57,10.0,Calm,Calm,-,N/A,,Mostly Cloudy,0,2013-09-05 14:15:00
8:35 AM,59.0,50.0,72,30.57,10.0,ESE,3.5,-,N/A,,Scattered Clouds,120,2013-09-05 14:35:00
8:55 AM,60.8,50.0,68,30.56,10.0,SE,3.5,-,N/A,,Scattered Clouds,140,2013-09-05 14:55:00
9:15 AM,62.6,48.2,59,30.57,10.0,SE,3.5,-,N/A,,Scattered Clouds,130,2013-09-05 15:15:00
9:35 AM,64.4,48.2,56,30.57,10.0,SE,3.5,-,N/A,,Clear,140,2013-09-05 15:35:00
9:55 AM,64.4,46.4,52,30.57,10.0,Calm,Calm,-,N/A,,Scattered Clouds,0,2013-09-05 15:55:00
10:15 AM,68.0,46.4,46,30.57,10.0,Calm,Calm,-,N/A,,Clear,0,2013-09-05 16:15:00
10:35 AM,69.8,46.4,43,30.57,10.0,Calm,Calm,-,N/A,,Clear,0,2013-09-05 16:35:00
10:55 AM,71.6,41.0,33,30.57,10.0,Calm,Calm,-,N/A,,Clear,0,2013-09-05 16:55:00
11:15 AM,69.8,42.8,38,30.57,10.0,WSW,5.8,-,N/A,,Scattered Clouds,240,2013-09-05 17:15:00
11:35 AM,69.8,46.4,43,30.56,10.0,WSW,5.8,-,N/A,,Scattered Clouds,250,2013-09-05 17:35:00
11:55 AM,73.4,41.0,31,30.56,10.0,Calm,Calm,-,N/A,,Scattered Clouds,0,2013-09-05 17:55:00
12:15 PM,73.4,39.2,29,30.55,10.0,WSW,5.8,-,N/A,,Scattered Clouds,240,2013-09-05 18:15:00
12:35 PM,73.4,41.0,31,30.55,10.0,West,9.2,-,N/A,,Scattered Clouds,270,2013-09-05 18:35:00
12:55 PM,73.4,39.2,29,30.55,10.0,West,5.8,-,N/A,,Scattered Clouds,280,2013-09-05 18:55:00
1:15 PM,73.4,39.2,29,30.55,10.0,Calm,Calm,-,N/A,,Mostly Cloudy,0,2013-09-05 19:15:00
1:35 PM,73.4,39.2,29,30.53,10.0,WSW,5.8,-,N/A,,Mostly Cloudy,240,2013-09-05 19:35:00
1:55 PM,71.6,41.0,33,30.53,10.0,West,4.6,-,N/A,,Mostly Cloudy,280,2013-09-05 19:55:00
2:15 PM,71.6,41.0,33,30.53,10.0,WNW,3.5,-,N/A,,Overcast,290,2013-09-05 20:15:00
2:35 PM,71.6,42.8,35,30.53,10.0,WNW,6.9,17.3,N/A,,Overcast,290,2013-09-05 20:35:00
2:55 PM,71.6,42.8,35,30.53,10.0,WNW,4.6,-,N/A,,Mostly Cloudy,290,2013-09-05 20:55:00
3:15 PM,71.6,42.8,35,30.52,10.0,Calm,Calm,-,N/A,,Mostly Cloudy,0,2013-09-05 21:15:00
3:35 PM,71.6,42.8,35,30.51,10.0,Calm,Calm,-,N/A,,Overcast,0,2013-09-05 21:35:00
3:55 PM,71.6,48.2,43,30.51,10.0,Calm,Calm,-,N/A,Rain,Light Rain,0,2013-09-05 21:55:00
4:15 PM,71.6,42.8,35,30.51,10.0,Calm,Calm,-,N/A,,Scattered Clouds,0,2013-09-05 22:15:00
4:35 PM,73.4,41.0,31,30.50,10.0,Calm,Calm,-,N/A,,Clear,0,2013-09-05 22:35:00
4:55 PM,73.4,42.8,33,30.50,10.0,West,5.8,-,N/A,,Scattered Clouds,270,2013-09-05 22:55:00
5:15 PM,75.2,42.8,31,30.49,10.0,West,6.9,-,N/A,,Scattered Clouds,260,2013-09-05 23:15:00
5:35 PM,75.2,42.8,31,30.49,10.0,West,5.8,-,N/A,,Scattered Clouds,280,2013-09-05 23:35:00
5:55 PM,73.4,42.8,33,30.48,10.0,West,9.2,-,N/A,Thunderstorm,Scattered Clouds,270,2013-09-05 23:55:00
6:15 PM,73.4,42.8,33,30.49,10.0,West,8.1,-,N/A,,Mostly Cloudy,270,2013-09-06 00:15:00
6:35 PM,71.6,42.8,35,30.49,10.0,West,8.1,-,N/A,Thunderstorm,Thunderstorm,270,2013-09-06 00:35:00
6:55 PM,71.6,41.0,33,30.48,10.0,West,8.1,-,N/A,,Overcast,270,2013-09-06 00:55:00
7:15 PM,71.6,41.0,33,30.49,10.0,West,8.1,-,N/A,,Overcast,280,2013-09-06 01:15:00
7:35 PM,69.8,41.0,35,30.49,10.0,West,5.8,-,N/A,Thunderstorm,Thunderstorm,270,2013-09-06 01:35:00
7:55 PM,69.8,42.8,38,30.49,10.0,Calm,Calm,-,N/A,Thunderstorm,Overcast,0,2013-09-06 01:55:00
8:15 PM,69.8,42.8,38,30.51,10.0,East,6.9,-,N/A,Thunderstorm,Thunderstorm,80,2013-09-06 02:15:00
8:35 PM,62.6,46.4,55,30.52,10.0,ENE,15.0,23.0,N/A,Thunderstorm,Thunderstorm,70,2013-09-06 02:35:00
8:55 PM,64.4,46.4,52,30.53,10.0,ENE,8.1,-,N/A,,Overcast,70,2013-09-06 02:55:00
9:15 PM,60.8,46.4,59,30.53,10.0,East,9.2,-,N/A,,Overcast,90,2013-09-06 03:15:00
9:35 PM,62.6,44.6,52,30.54,10.0,East,6.9,16.1,N/A,,Mostly Cloudy,90,2013-09-06 03:35:00
9:55 PM,62.6,46.4,55,30.55,10.0,Calm,Calm,-,N/A,,Overcast,0,2013-09-06 03:55:00
10:15 PM,60.8,46.4,59,30.54,10.0,Calm,Calm,-,N/A,Thunderstorm,Scattered Clouds,0,2013-09-06 04:15:00
10:35 PM,60.8,46.4,59,30.54,10.0,East,6.9,-,N/A,,Scattered Clouds,100,2013-09-06 04:35:00
10:55 PM,60.8,46.4,59,30.55,10.0,ESE,5.8,-,N/A,,Mostly Cloudy,120,2013-09-06 04:55:00
11:15 PM,59.0,46.4,63,30.55,10.0,East,5.8,-,N/A,,Mostly Cloudy,90,2013-09-06 05:15:00
11:35 PM,59.0,46.4,63,30.55,10.0,East,4.6,-,N/A,,Scattered Clouds,100,2013-09-06 05:35:00
11:55 PM,59.0,46.4,63,30.55,10.0,ESE,3.5,-,N/A,,Mostly Cloudy,110,2013-09-06 05:55:00